Location: Canazei
(46.4667°N, 11.7667°E)
Time: 04:26:16
(UTC+00:00)

PAYLOAD A - Pass Details

Date: 21 April 2021
Orbit: 691 x 832 km, 98.4° (Epoch: 10 May)

Event Time Altitude Azimuth Distance (km) Brightness Sun altitude
Rises 03:17:15 0° 11° (NNE) 3,285 7.9 -10.0°
Reaches altitude 10° 03:19:38 10° 10° (N) 2,331 7.1 -9.6°
Maximum altitude 03:24:44 71° 288° (WNW) 796 4.0 -8.8°
Drops below altitude 10° 03:29:36 10° 204° (SSW) 2,224 5.9 -8.1°
Enters shadow 03:31:31 - 202° (SSW) 2,997 6.6 -7.8°
